Regional Weather Roundup
Issued by NWS

Home | Current Version | Previous Version | Text Only | Print | Product List | Glossary Off
Versions: 1 2 3 4 5 6 7 8 9 10 11 12 13 14 15 16 17 18 19 20 21 22 23 24 25 26 27 28 29 30 31 32 33 34 35 36 37 38 39 40 41 42 43 44 45 46 47 48 49 50

000
ASUS45 KBOU 291207
RWRCO

WEATHER ROUNDUP FOR COLORADO
NATIONAL WEATHER SERVICE DENVER/BOULDER CO
600 AM MDT WED MAR 29 2017

NOTE: "FAIR" INDICATES FEW OR NO CLOUDS BELOW 12000 FEET WITH NO
SIGNIFICANT WEATHER AND/OR OBSTRUCTIONS TO VISIBILITY.

COZ001>005-013-030-031-291300-
...NORTHWEST COLORADO...

CITY           SKY/WX    TMP DP  RH WIND       PRES   REMARKS
CRAIG          FAIR      30  26  85 W3        30.16R
HAYDEN         FAIR      27  23  86 CALM      30.15R
MEEKER         CLOUDY    31  29  92 NW5       30.16R WCI  26
MOUNT WERNER   NOT AVBL
STEAMBOAT SPGS FAIR      30  27  91 CALM      30.14R
WALDEN         NOT AVBL
$$

COZ006>008-011-291300-
...WEST CENTRAL VALLEYS...

CITY           SKY/WX    TMP DP  RH WIND       PRES   REMARKS
GRAND JUNCTION CLOUDY    42  30  62 W6        30.11R
MONTROSE       FAIR      35  30  82 CALM      30.10R
EAGLE          CLOUDY    37  30  75 E7        30.11R
RIFLE          FAIR      33  31  92 E8        30.11R WCI  26
DELTA          FAIR      38  32  77 NE3       30.06R
NUCLA          FAIR      41  28  60 NW16G23   30.10R
$$

COZ017>023-064>068-291300-
...SOUTHWEST COLORADO...

CITY           SKY/WX    TMP DP  RH WIND       PRES   REMARKS
DURANGO        FAIR      32  29  88 N7        29.95R WCI  26
CORTEZ         FAIR      40  30  67 N7        30.00R
PAGOSA SPRINGS FAIR      35  33  90 CALM      29.95R
TELLURIDE      NOT AVBL
WOLF CREEK PAS CLOUDY    19  19 100 N13G20    30.05R WCI   7
$$

COZ009-010-012-014-032>034-037-058>063-291300-
...CENTRAL COLORADO...

CITY           SKY/WX    TMP DP  RH WIND       PRES   REMARKS
ASPEN          CLOUDY    34  29  82 CALM      30.08R
BUENA VISTA    CLOUDY    35  26  68 N7        30.03S WCI  29
COPPER MTN     CLOUDY    23  18  80 MISG      30.09R
BERTHOUD PASS  HAZE      16   5  62 NW8       30.10R VSB<1/4 WCI   5
COTTONWOOD PAS MOCLDY    32  25  74 CALM      30.05S
GUNNISON       FAIR      33  28  81 W10       30.05R WCI  25
KREMMLING      FAIR      37  28  70 NW9       30.11S
LEADVILLE      FLURRIES  25  20  81 N12       30.06R WCI  14
MONARCH PASS   CLOUDY    21  19  93 MISG      30.13R
SALIDA         CLOUDY    34  33  95 SE6       30.10R WCI  29
SUNLIGHT       CLOUDY   N/A N/A N/A NE8       30.16R
WILKERSON PASS CLOUDY   N/A N/A N/A NE12G22   30.07R FOG
$$

COZ069>075-291300-
...SAN LUIS VALLEY/SANGRE DE CRISTO MOUNTAINS...

CITY           SKY/WX    TMP DP  RH WIND       PRES   REMARKS
ALAMOSA        CLOUDY    35  31  85 N10       29.97R WCI  27
LA VETA PASS   NOT AVBL
SAGUACHE       MOCLDY    36  25  64 N8        30.00R
$$

COZ035-036-038>040-291300-
...NORTHERN COLORADO FRONT RANGE...

CITY           SKY/WX    TMP DP  RH WIND       PRES   REMARKS
DENVER INTL AP FLURRIES  35  33  92 N12       30.08S WCI  27
DMNS CITY PARK   N/A     37  36  95 N2G9      30.10R
AURORA         LGT RAIN  34  34 100 N9        30.08S WCI  27
FRONT RANGE AP RAIN      36  36 100 N9        30.08S
ERIE MUNI ARPT CLOUDY    38  37  94 CALM      30.09S
BOULDER MUN AP CLOUDY    37  36  93 CALM      30.09S
CENTENNIAL     CLOUDY    34  50 100 N10       30.08R VSB 1   WCI  26
BROOMFIELD     CLOUDY    36  36 100 N7        30.09S
FORT COLLINS   FAIR      38  36  92 NE6       30.10R
LONGMONT       CLOUDY    40  37  89 CALM      30.11S
$$

COZ041-046-047-076>085-087-088-291300-
...PIKES PEAK/PALMER DIVIDE AND SOUTHERN FOOTHILLS...

CITY           SKY/WX    TMP DP  RH WIND       PRES   REMARKS
COLO. SPRINGS  CLOUDY    36  29  75 N16       30.03R
A. F. ACADEMY  NOT AVBL
SCHRIEVER AFB  CLOUDY    34  31  86 N15G26    30.02R WCI  25
ELLICOTT       CLOUDY   N/A N/A N/A N21       29.99R
FALCON         CLOUDY    32  30  92 N15G24    30.03R WCI  22
FORT CARSON    CLOUDY    38  30  71 N24G30    30.01R
LIMON          CLOUDY    34  34 100 N14       30.02R FOG     WCI  25
MONUMENT HILL  FOG       30  30 100 N14G21    30.06R VSB 3/4 WCI  20
TRINIDAD       LGT SNOW  33  31  92 NW13      30.00R FOG     WCI  24
$$

COZ042>045-048>051-090-091-291300-
...NORTHEAST COLORADO...

CITY           SKY/WX    TMP DP  RH WIND       PRES   REMARKS
GREELEY ARPT   CLOUDY    38  35  89 N5        30.11R
AKRON          LGT RAIN  35  34  96 N12       30.04F FOG     WCI  27
BURLINGTON     LGT RAIN  38  37  97 N16G26    29.97S FOG
WRAY           DRIZZLE  N/A N/A N/A N15G22    30.02S
STERLING       CLOUDY    37  36  93 N8        30.07S
HOLYOKE        CLOUDY    41  37  87 N13       30.05S
FORT MORGAN    CLOUDY    37  35  95 N9        30.08S
$$

COZ086-089-092>099-291300-
...SOUTHEAST COLORADO...

CITY           SKY/WX    TMP DP  RH WIND       PRES   REMARKS
PUEBLO         CLOUDY    41  34  76 NE7       30.02R
LA JUNTA       CLOUDY    40  36  86 N18       29.98F
LAMAR          LGT RAIN  40  36  86 N14       29.94R
SPRINGFIELD      N/A     37  36  96 N30G38    29.88R
$$



USA.gov is the U.S. government's official web portal to all federal, state and local government web resources and services.